[[{"header":{"parameterUnit":"m.s-1","parameterCategory":1,"la1":30.2991,"la2":30.254,"lo1":-89.0895,"lo2":-89.0444,"dy":0.0017,"dx":0.0017,"nx":28,"ny":28,"refTime":"2025-06-01T21:00:00:Z","depth":0,"parameterNumber":2,"parameterNumberName":"U-component_of_WINDS"},"data":[0,0,0,0,0,0,0,0,0,0,0,0,0,0,0,0,0,0,0,0,0,0,0,0,0,0,0,0,0,0,0,0,0,0,0,0,0,0,0,0,0,0,0,0,0,0,0,0,0,0,0,0,0,0,0,0,0,0,2.2765,2.2766,0,2.2883,2.2884,2.2885,2.2878,2.2876,2.2875,2.2873,2.2994,2.2999,2.3004,0,0,0,0,0,0,0,0,0,0,0,0,0,2.253,2.2535,2.2764,2.2766,2.2767,2.2882,2.2884,2.2886,2.2878,2.2876,2.2874,2.2872,2.2993,2.2998,2.3004,0,0,0,0,0,0,0,0,0,0,0,0,0,2.2639,2.2536,2.2764,2.2778,2.278,2.2882,2.2884,2.2886,2.2879,2.2876,2.2874,2.2871,2.2991,2.2998,2.3005,2.3101,0,0,2.3027,2.303,0,0,0,0,0,0,0,0,2.2632,2.2647,2.2774,2.2777,2.278,2.2863,2.2846,2.2958,2.2879,2.2841,2.2873,2.287,2.2953,2.2963,2.2991,2.3107,2.3112,2.3028,2.3032,2.3035,2.3037,0,0,0,0,0,0,0,2.2625,2.2642,2.2811,2.2776,2.2779,2.2777,2.2789,2.2867,2.291,2.2844,2.2844,2.2858,2.2954,2.2984,2.2993,2.3114,2.3027,2.3034,2.3038,2.3041,2.3311,2.3314,0,0,0,0,0,0,2.2615,2.2636,2.2807,2.2815,2.2698,2.2783,2.2797,2.2839,2.2909,2.2917,2.286,2.2857,2.2973,2.2985,2.2998,2.3112,2.3035,2.3042,2.3046,2.3308,2.3312,2.3315,0,0,0,0,0,0,2.261,2.263,2.2803,2.2725,2.2747,2.279,2.2837,2.2843,2.2873,2.2921,2.2929,2.2883,2.2971,2.2987,2.3075,2.3116,2.3045,2.3052,2.3305,2.3309,2.3313,2.3344,0,0,0,0,0,0,2.2603,2.2628,2.2666,2.2726,2.2751,2.2878,2.2839,2.2847,2.2885,2.2882,2.2945,2.2953,2.297,2.3064,2.3082,2.3125,2.3057,2.3301,2.3307,2.3312,2.3339,2.3348,2.3356,0,0,0,0,0,2.2595,2.2671,2.2668,2.2689,2.28,2.2881,2.2895,2.2914,2.2889,2.2926,2.2957,2.2951,2.3109,2.3073,2.3093,2.3139,2.3299,2.3305,2.3311,2.3335,2.3347,2.3356,0,0,0,0,0,0,2.2616,2.2679,2.2677,2.2775,2.2822,2.288,2.2928,2.2926,2.2982,2.2977,2.2998,2.3012,2.3099,2.3128,2.3087,2.3234,2.32,2.3211,2.3212,2.3223,2.3231,2.3221,2.3063,0,0,0,0,0,2.2632,2.2693,2.2745,2.2827,2.2851,2.2885,2.2921,2.2931,2.2981,2.3002,2.3039,2.3087,2.3148,2.3187,2.3246,2.3344,2.3355,2.3385,2.3393,2.34,2.3409,2.3459,2.3471,2.3336,2.3335,2.3335,0,0,2.2666,2.2708,2.2746,2.2832,2.287,2.2931,2.2902,2.297,2.3015,2.3012,2.3095,2.3124,2.318,2.3271,2.3314,2.3298,2.3449,2.3408,2.3413,2.3418,2.3466,2.3479,2.3491,2.334,2.3339,2.3338,0,0,2.2758,2.2798,2.2868,2.2906,2.2963,2.2985,2.3002,2.3059,2.3077,2.3162,2.3159,2.3213,2.3318,2.3356,2.339,2.3493,2.3488,2.3512,2.3556,2.3605,2.3615,2.3625,2.3658,2.3671,2.352,2.352,2.352,0,2.2793,2.2886,2.2905,2.2971,2.3008,2.3007,2.3077,2.3113,2.3187,2.3212,2.3193,2.3322,2.336,2.3458,2.3483,2.3511,2.3529,2.3504,2.3612,2.3622,2.3631,2.3663,2.3676,2.3523,2.3522,2.3522,2.3522,0,2.2924,2.2989,2.3039,2.3108,2.315,2.3219,2.3246,2.3287,2.3292,2.3316,2.3399,2.3444,2.351,2.3534,2.3542,2.3633,2.3621,2.3608,2.3574,2.3646,2.3676,2.3689,2.3526,2.3525,2.3524,2.3524,0,0,2.3035,2.3111,2.3129,2.3158,2.322,2.327,2.3337,2.34,2.3433,2.3484,2.3538,2.3625,2.3612,2.3649,2.3661,2.3704,2.3778,2.3684,2.3685,2.3697,2.3878,2.3886,2.39,2.3776,2.3778,2.378,2.3872,0,2.3131,2.3249,2.3266,2.337,2.3428,2.3427,2.3484,2.3528,2.3551,2.3602,2.3628,2.3688,2.3667,2.3689,2.3732,2.376,2.3814,2.3754,2.3825,2.3827,2.3809,2.3917,2.3926,2.4011,2.3884,2.3886,2.3888,0,2.326,2.3311,2.3421,2.3471,2.3496,2.3548,2.3605,2.3655,2.3703,2.3717,2.3757,2.3762,2.3829,2.3794,2.3885,2.3844,2.3874,2.3892,2.3896,2.3901,2.386,2.3922,2.4039,2.405,2.3908,2.3906,2.3905,0,2.3325,2.3422,2.3499,2.3525,2.3587,2.3622,2.3649,2.3695,2.3731,2.3781,2.3804,2.3862,2.3893,2.3937,2.3957,2.393,2.4046,2.4013,2.4057,2.4057,2.4081,2.4078,2.42,2.4104,2.4104,2.4104,2.4103,0,2.3429,2.3496,2.3528,2.3575,2.3648,2.3667,2.3738,2.3764,2.3804,2.3855,2.3859,2.3906,2.393,2.3981,2.3997,2.4068,2.4084,2.4095,2.4098,2.4093,2.4091,2.4112,2.4105,2.4107,2.4106,2.4106,2.4105,0,2.3514,2.3539,2.3622,2.3673,2.3687,2.3738,2.3781,2.3825,2.3847,2.3911,2.3927,2.3962,2.4021,2.4045,2.4119,2.413,2.4211,2.4211,2.4194,2.4194,2.4236,2.423,2.4374,2.4392,2.4286,2.4287,2.4288,0,2.3578,2.3628,2.3683,2.3717,2.3745,2.38,2.3836,2.3855,2.3892,2.3949,2.3986,2.4045,2.4094,2.4189,2.4219,2.4275,2.4274,2.4321,2.4283,2.4275,2.4271,2.4267,2.4271,2.4327,2.4328,2.4329,2.433,0,2.3688,2.3697,2.3748,2.3803,2.3845,2.389,2.3933,2.3961,2.3986,2.4027,2.4087,2.4125,2.4198,2.4256,2.4313,2.434,2.4338,2.4341,2.4354,2.4348,2.4335,2.434,2.421,2.4338,2.4337,2.4336,2.4336,2.4335,2.3762,2.3805,2.3849,2.3906,2.394,2.3979,2.4023,2.4049,2.4099,2.416,2.4168,2.4232,2.4276,2.4351,2.438,2.443,2.4418,2.4437,2.4441,2.4445,2.4446,2.4329,2.444,2.444,2.444,2.444,2.444,0,2.3869,2.3897,2.3948,2.4007,2.4051,2.4045,2.4092,2.4128,2.4184,2.4225,2.4272,2.4339,2.4394,2.4429,2.4484,2.4516,2.4517,2.453,2.4527,2.4532,2.4455,2.4437,2.4529,2.4529,2.4528,2.4528,2.4528,2.4528,2.393,2.4001,2.4015,2.4102,2.413,2.4191,2.4218,2.4254,2.4286,2.4361,2.4406,2.4428,2.4465,2.4523,2.4572,2.4581,2.46,2.4613,2.4621,2.4548,2.4538,2.4529,2.4512,2.4618,2.4618,2.4693,2.4694,2.4694]},{"header":{"parameterUnit":"m.s-1","parameterCategory":1,"la1":30.2991,"la2":30.254,"lo1":-89.0895,"lo2":-89.0444,"dy":0.0017,"dx":0.0017,"nx":28,"ny":28,"refTime":"2025-06-01T21:00:00:Z","depth":0,"parameterNumber":3,"parameterNumberName":"V-component_of_WINDS"},"data":[0,0,0,0,0,0,0,0,0,0,0,0,0,0,0,0,0,0,0,0,0,0,0,0,0,0,0,0,0,0,0,0,0,0,0,0,0,0,0,0,0,0,0,0,0,0,0,0,0,0,0,0,0,0,0,0,0,0,0.9787,0.9787,0,0.9866,0.9866,0.9867,0.9877,0.9876,0.9875,0.9875,0.9959,0.9962,0.9965,0,0,0,0,0,0,0,0,0,0,0,0,0,0.9646,0.9649,0.9787,0.9788,0.9788,0.9865,0.9867,0.9868,0.9877,0.9876,0.9875,0.9874,0.9958,0.9962,0.9965,0,0,0,0,0,0,0,0,0,0,0,0,0,0.9714,0.9649,0.9786,0.9802,0.9805,0.9865,0.9867,0.9868,0.9877,0.9876,0.9875,0.9874,0.9957,0.9961,0.9966,1.0017,0,0,0.998,0.9982,0,0,0,0,0,0,0,0,0.971,0.972,0.9799,0.9801,0.9804,0.986,0.9848,0.9918,0.9878,0.985,0.9875,0.9873,0.9928,0.9934,0.9952,1.0021,1.0025,0.998,0.9983,0.9985,0.9986,0,0,0,0,0,0,0,0.9706,0.9716,0.9818,0.98,0.9803,0.9806,0.9815,0.9861,0.9894,0.9852,0.9853,0.9862,0.9929,0.9948,0.9954,1.0026,0.998,0.9984,0.9987,0.9988,1.0139,1.0141,0,0,0,0,0,0,0.9698,0.9712,0.9815,0.982,0.9753,0.981,0.9819,0.9843,0.9894,0.99,0.9863,0.9862,0.994,0.9949,0.9957,1.0019,0.9985,0.9989,0.9991,1.0138,1.014,1.0141,0,0,0,0,0,0,0.9695,0.9707,0.9812,0.9766,0.978,0.9813,0.9841,0.9846,0.9864,0.9902,0.9908,0.9876,0.994,0.9951,1.0001,1.0022,0.9991,0.9995,1.0137,1.0139,1.014,1.0145,0,0,0,0,0,0,0.969,0.9706,0.9725,0.9767,0.9782,0.9855,0.9842,0.9848,0.9872,0.9871,0.9916,0.9922,0.994,0.9995,1.0006,1.0028,0.9998,1.0135,1.0137,1.014,1.0143,1.0147,1.015,0,0,0,0,0,0.9685,0.9724,0.9726,0.9738,0.9807,0.9856,0.9865,0.9883,0.9873,0.9893,0.9917,0.9921,1.0018,1.0,1.0012,1.0036,1.0134,1.0137,1.014,1.0141,1.0146,1.015,0,0,0,0,0,0,0.9686,0.973,0.9733,0.9786,0.9817,0.9857,0.9883,0.9888,0.9924,0.9922,0.9944,0.9954,1.0004,1.0025,1.0004,1.0088,1.0075,1.0081,1.0072,1.0077,1.008,1.0074,1.0002,0,0,0,0,0,0.9692,0.9727,0.9764,0.9807,0.9823,0.985,0.9872,0.9883,0.9917,0.993,0.9958,0.9992,1.0029,1.0054,1.0091,1.0146,1.0155,1.0168,1.0171,1.0174,1.0179,1.0208,1.0214,1.0151,1.0151,1.0151,0,0,0.9706,0.9734,0.9755,0.9808,0.9834,0.987,0.9861,0.99,0.9927,0.9937,0.9986,1.0007,1.0046,1.0098,1.0123,1.0118,1.0198,1.0178,1.018,1.0183,1.0212,1.0218,1.0223,1.0153,1.0153,1.0152,0,0,0.9748,0.9773,0.9811,0.9836,0.9874,0.9892,0.9901,0.994,0.9954,1.0003,1.0011,1.0044,1.0109,1.0136,1.0158,1.0208,1.0213,1.022,1.0238,1.0266,1.0271,1.0276,1.0293,1.0299,1.0224,1.0224,1.0224,0,0.9761,0.9814,0.9831,0.9869,0.9892,0.99,0.9939,0.9963,1.0011,1.0027,1.002,1.0101,1.0128,1.0186,1.0197,1.0215,1.0226,1.0215,1.0269,1.0274,1.0278,1.0295,1.0302,1.0225,1.0225,1.0225,1.0225,0,0.9827,0.9864,0.9891,0.9935,0.9961,1.0,1.0022,1.0047,1.0055,1.0073,1.0123,1.0155,1.0198,1.0212,1.0222,1.0272,1.0267,1.0264,1.0252,1.0284,1.0301,1.0307,1.0226,1.0225,1.0225,1.0225,0,0,0.9875,0.9925,0.9935,0.9954,0.9996,1.0025,1.0063,1.0104,1.0124,1.0157,1.0189,1.0243,1.024,1.0265,1.0278,1.0302,1.0339,1.0296,1.0298,1.0303,1.0395,1.0397,1.0404,1.0342,1.0343,1.0344,1.0392,0,0.9922,0.9989,1.0004,1.0062,1.0096,1.0103,1.0137,1.0166,1.0184,1.0216,1.0236,1.0273,1.0267,1.0282,1.0306,1.0329,1.0358,1.0326,1.0373,1.0375,1.0363,1.0413,1.0415,1.0459,1.0398,1.0399,1.04,0,0.9986,1.0018,1.0079,1.0114,1.0129,1.0158,1.0196,1.0226,1.0259,1.027,1.0297,1.0306,1.0346,1.0331,1.0387,1.0365,1.0385,1.0399,1.0401,1.0407,1.039,1.0419,1.0473,1.0479,1.041,1.041,1.0409,0,1.0014,1.0072,1.0116,1.0132,1.0174,1.0195,1.0213,1.0245,1.0267,1.03,1.0315,1.0353,1.0374,1.0403,1.0422,1.041,1.0476,1.0463,1.0487,1.0487,1.0501,1.05,1.0559,1.0514,1.0514,1.0514,1.0514,0,1.0065,1.0102,1.0128,1.0155,1.0196,1.0213,1.0254,1.0273,1.03,1.0331,1.034,1.0369,1.0393,1.0425,1.044,1.0484,1.0494,1.0504,1.0508,1.0503,1.0502,1.0517,1.0515,1.0516,1.0515,1.0515,1.0515,0,1.0103,1.0122,1.017,1.0205,1.0214,1.0243,1.0273,1.03,1.0317,1.0356,1.0366,1.0394,1.0432,1.0453,1.0502,1.0512,1.0561,1.0563,1.0549,1.0551,1.0573,1.0571,1.0644,1.0654,1.0603,1.0603,1.0603,0,1.0135,1.0163,1.02,1.022,1.0239,1.0272,1.0294,1.0312,1.0335,1.0373,1.0395,1.0433,1.0465,1.0526,1.0551,1.0588,1.0591,1.0614,1.0597,1.0591,1.0591,1.0589,1.0592,1.0617,1.0618,1.0618,1.0618,0,1.0189,1.0196,1.0227,1.0261,1.0287,1.0316,1.0344,1.036,1.0382,1.0408,1.0446,1.047,1.0519,1.0557,1.0595,1.0616,1.0621,1.0623,1.0631,1.0627,1.0617,1.0622,1.0557,1.0622,1.0622,1.0621,1.0621,1.0621,1.0225,1.0249,1.0278,1.0312,1.0335,1.036,1.0386,1.0405,1.0437,1.0477,1.0485,1.0525,1.0557,1.0609,1.0629,1.0661,1.0657,1.0668,1.0671,1.0674,1.0674,1.0612,1.0669,1.0669,1.0669,1.0669,1.0669,0,1.0278,1.0297,1.0328,1.0365,1.0392,1.0392,1.0423,1.0446,1.048,1.0508,1.0538,1.0582,1.0618,1.0645,1.0682,1.0702,1.0706,1.0712,1.0711,1.0715,1.0676,1.0665,1.0708,1.0708,1.0708,1.0708,1.0708,1.0708,1.0309,1.0351,1.0361,1.0414,1.0432,1.047,1.0487,1.0511,1.0533,1.058,1.061,1.0626,1.0654,1.0692,1.0726,1.0733,1.0746,1.0752,1.0759,1.0722,1.0718,1.0714,1.0704,1.0754,1.0754,1.0795,1.0796,1.0796]}]]